Location: Muenchen
(48.1800°N, 11.5800°E)
Time: 11:31:56
(UTC+02:00)

Vanguard 2 Rocket - Visible Passes

Search period start: 24 October 2014 00:00
Search period end: 02 November 2014 23:00
Orbit: 554 x 3335 km, 32.9° (Epoch: 22 October)

Date Brightness Start Highest point End Pass type
(mag) Time Alt. Az. Time Alt. Az. Time Alt. Az.
24 Oct 9.2 04:06:31 13° SE 04:06:31 13° SE 04:08:14 10° SE visible
24 Oct 8.8 06:12:26 12° SW 06:16:57 25° S 06:24:24 10° SE visible
25 Oct 8.5 05:17:28 20° S 05:18:47 21° S 05:24:30 10° SE visible
26 Oct 9.0 03:22:29 15° SE 03:22:29 15° SE 03:24:42 10° SE visible
26 Oct 8.8 05:28:33 10° SW 05:33:10 21° S 05:39:41 10° SE visible
27 Oct 8.5 04:33:26 18° SSW 04:34:57 19° S 04:40:08 10° SE visible
28 Oct 8.9 03:38:28 15° SSE 03:38:28 15° SSE 03:40:41 10° SE visible
28 Oct 9.0 05:45:41 10° SW 05:49:25 16° S 05:54:15 10° SSE visible
29 Oct 8.7 04:49:25 14° SSW 04:51:10 15° S 04:55:12 10° SSE visible
30 Oct 8.9 03:54:29 13° SSE 03:54:29 13° SSE 03:56:11 10° SSE visible
31 Oct 8.9 05:06:16 10° SSW 05:07:25 11° S 05:08:39 10° S visible
